Tracking 19706 objects as of 15-Jun-2019
HD Live streaming from Space Station
objects crossing your sky now

THORAD AGENA D DEB

Track THORAD AGENA D DEB now!
10-day predictions


NORAD ID: 4859
Int'l Code: 1970-025EP
Perigee: 1,013.8 km
Apogee: 1,085.7 km
Inclination: 100.0 °
Period: 106.0 minutes
Semi major axis: 7420 km
RCS: 0.0107 m2 (small)
Launch date: April 8, 1970
Source: United States (US)
Launch site: AIR FORCE WESTERN TEST RANGE (AFWTR)

Note: This is SATELLITE DEBRIS
aabbcc
Your satellite tracking list
Your tracking list is empty




NASA's NSSDC Master Catalog

Two Line Element Set (TLE):
1  4859U 70025EP  19165.61848123 +.00000166 +00000-0 +29244-3 0  9992
2  4859 100.0358 184.3482 0048425 206.5813 277.3473 13.58104771420010
Source of the keplerian elements: AFSPC